Location: Belfast
(54.5830°N, 5.9330°W)
Time: 01:48:27
(UTC+01:00)

ISS - Pass Details

Date: 21 March 2017
Orbit: 399 x 409 km, 51.6° (Epoch: 30 March)

Event Time Altitude Azimuth Distance (km) Brightness Sun altitude
Exits shadow 03:36:20 11° 127° (SE) 1,416 -0.9 -23.3°
Drops below altitude 10° 03:36:29 10° 126° (SE) 1,475 -0.8 -23.3°
Sets 03:38:39 0° 118° (ESE) 2,336 0.4 -23.1°
